Flag for Canada Weather past 2 weeks in Lloydminster, Alberta, Canada

Now
52 °F

Partly cloudy.


Feels Like: 50 °F
Forecast: 52 / 66 °F
Wind: 6 mph from West

Location: Lloydminister

Current Time: Sep 19, 2014 at 7:48:55 AM

Latest Report: Sep 19, 2014 at 7:00 AM


Visibility: 12 mi

Pressure: 29.64 "Hg

Humidity: 88%

Dew point: 48 °F

Location of LloydminsterLocation

Historic Weather in Lloydminster — Graph

°F

Lloydminster temperature yesterday

Maximum temperature yesterday: 68 °F (at 5:00 PM)
Minimum temperature yesterday: 41 °F (at 7:00 AM)
Average temperature yesterday: 54 °F

Past Weeks' High & Low Weather Summary

 TemperatureHumidityPressure
High75 °F (Sep 6, 4:00 PM)100% (Sep 4, 6:00 AM)30.66 "Hg (Sep 4, 6:00 AM)
Low23 °F (Sep 11, 5:00 AM)27% (Sep 16, 5:00 PM)29.56 "Hg (Sep 18, 11:00 AM)
Average49 °F70%30.09 "Hg
* Reported Sep 4 6:00 AM — Sep 19 6:00 AM, Lloydminster, Weather by CustomWeather, © 2014

Note: Actual official high and low records may vary slightly from our data, if they occured in-between our weather recording intervals... More about our weather records

Advertising

Lloydminster weather history for previous 24 hours

 ConditionsComfort  
Time TempWeatherWind HumidityBarometerVisibility
6:00 AM
Sep 19
54 °FPassing clouds.10 mph82%29.63 "Hg9 mi
5:00 AM55 °FMostly cloudy.10 mph77%29.62 "Hg9 mi
4:00 AM54 °FMostly cloudy.8 mph82%29.61 "Hg9 mi
3:00 AM54 °FOvercast.8 mph82%29.61 "Hg9 mi
2:00 AM52 °FMostly cloudy.6 mph82%29.61 "Hg9 mi
1:00 AM54 °FOvercast.5 mph82%29.60 "Hg9 mi
12:00 AM54 °FOvercast.6 mph82%29.61 "Hg9 mi
11:00 PM
Sep 18
52 °FOvercast.7 mph88%29.61 "Hg9 mi
10:00 PM50 °FPassing clouds.6 mph82%29.61 "Hg9 mi
9:00 PM55 °FPartly cloudy.6 mph72%29.60 "Hg15 mi
8:00 PM61 °FBroken clouds.5 mph63%29.59 "Hg15 mi
7:00 PM64 °FPartly sunny.5 mph52%29.59 "Hg15 mi
6:00 PM66 °FMostly cloudy.10 mph49%29.56 "Hg15 mi
5:00 PM68 °FScattered showers. Broken clouds.10 mph46%29.57 "Hg15 mi
4:00 PM66 °FMore clouds than sun.8 mph52%29.56 "Hg15 mi
3:00 PM66 °FMore clouds than sun.9 mph56%29.56 "Hg15 mi
2:00 PM63 °FSprinkles. Mostly cloudy.7 mph64%29.58 "Hg15 mi
1:00 PM61 °FMore clouds than sun.8 mph68%29.57 "Hg12 mi
12:00 PM55 °FMostly cloudy.6 mph77%29.57 "Hg10 mi
11:00 AM54 °FMostly cloudy.2 mph88%29.56 "Hg9 mi
10:00 AM50 °FMostly cloudy.3 mph94%29.57 "Hg9 mi
9:00 AM46 °FPartly sunny.No wind93%29.57 "Hg8 mi
8:00 AM43 °FFog.3 mph100%29.56 "Hg3 mi
7:00 AM41 °FFog.3 mph100%29.57 "Hg1 mi
Weather by CustomWeather, © 2014

See weather overviewHow to use our weather pages